Regional Weather Roundup
Issued by NWS Mt. Holly, NJ

Home | Current Version | Previous Version | Text Only | Print | Product List | Glossary On
Versions: 1 2 3 4 5 6 7 8 9 10 11 12 13 14 15 16 17 18 19 20 21 22 23 24 25 26 27 28 29 30 31 32 33 34 35 36 37 38 39 40 41 42 43 44 45 46 47 48 49 50
000
ASUS41 KPHI 191510
RWRPHI

REGIONAL WEATHER ROUNDUP
NATIONAL WEATHER SERVICE MOUNT HOLLY NJ
1100 AM EDT FRI SEP 19 2014

NOTE:  "FAIR" INDICATES FEW OR NO CLOUDS BELOW 12,000 FEET WITH NO
SIGNIFICANT WEATHER AND/OR OBSTRUCTIONS TO VISIBILITY.

 * = STATION DOES NOT REPORT PRECIPITATION (E.G. RAIN, SNOW, ETC.)
        OR FOG.

NJZ015>026-191600-
SOUTHERN NEW JERSEY

CITY           SKY/WX    TMP DP  RH WIND       PRES   REMARKS
POMONA         CLOUDY    66  56  70 E16G24    30.28R
RIO GRANDE*    PTSUNNY   70  57  64 NE15G24   30.26R
MILLVILLE      PTSUNNY   67  56  67 E16       30.27R
MOUNT HOLLY    CLOUDY    62  50  64 E10       30.31R
TRENTON        MOSUNNY   62  46  55 E12       30.31S

$$
NJZ001>014-191600-
NORTHERN NEW JERSEY

CITY           SKY/WX    TMP DP  RH WIND       PRES   REMARKS
SUSSEX         PTSUNNY   58  43  57 N10       30.36R
ANDOVER*         N/A     56  45  66 VRB3      30.35R
MORRISTOWN     MOSUNNY   61  45  55 E7G15     30.36R
NEWARK         PTSUNNY   61  41  47 NE9G20    30.34R
TETERBORO      PTSUNNY   60  38  43 E10       30.34R
CALDWELL       MOSUNNY   59  38  45 E12       30.35R
ALLAIRE*       MOSUNNY   63  46  55 NE12G22   30.32S
TOMS RIVER*    CLOUDY    63  48  59 E10G18    30.32R

$$
PAZ043-044-047-054-055-060>062-066>071-191600-
EASTERN PENNSYLVANIA

CITY           SKY/WX    TMP DP  RH WIND       PRES   REMARKS
PHILADELPHIA   CLOUDY    64  52  64 E13       30.31R
NORTH PHILA    CLOUDY    63  48  58 NE15      30.33R
BLUE BELL      PTSUNNY   63  52  67 NE8       30.31R
DOYLESTOWN     MOSUNNY   58  48  69 NE8       30.32R
QUAKERTOWN*    SUNNY     59  48  67 NE5       30.33R
POTTSTOWN      MOSUNNY   61  49  64 E6        30.32S
LANCASTER      SUNNY     63  48  58 E9        30.30S
COATESVILLE    SUNNY     61  52  72 E14G26    30.30S
READING        SUNNY     63  49  60 NE6       30.30S
ALLENTOWN      SUNNY     60  44  55 NE10      30.33S
MOUNT POCONO   PTSUNNY   52  45  77 SE8       30.32S
HAZLETON       MOSUNNY   55  43  62 CALM      30.34S
WILKES BARRE   PTSUNNY   55  43  63 VRB3      30.33S

$$
DEZALL-MDZ008-012-015-019-020-191600-
DELAWARE AND EASTERN MARYLAND

CITY           SKY/WX    TMP DP  RH WIND       PRES   REMARKS
WILMINGTON     MOSUNNY   65  54  67 NE15      30.30R
GEORGETOWN     MOSUNNY   71  61  70 E13       30.25S
EASTON         MOSUNNY   68  59  73 E7        30.29S
PATUXENT       PTSUNNY   69  58  67 VRB5      30.25R
OCEAN CITY     MOSUNNY   73  60  63 E8        30.23S
WALLOPS ISLAND SUNNY     73  61  65 E12       30.24R
CAMBRIDGE      SUNNY     72  61  68 N6        30.25S
SALISBURY      SUNNY     74  59  59 NE6       30.24R

$$
PAZ001-021-NYZ056-072-MDZ011-DCZ001-191600-
OTHER NEARBY LOCATIONS

CITY           SKY/WX    TMP DP  RH WIND       PRES   REMARKS
HARRISBURG     PTSUNNY   63  47  55 NE6       30.29F
WILLIAMSPORT   SUNNY     58  41  53 VRB6      30.32S
BINGHAMTON     SUNNY     48  39  71 E8        30.34R
NEW YORK CITY  PTSUNNY   59  42  53 E14G20    30.37R
BALTIMORE      PTSUNNY   65  53  65 E9        30.27S
WASHINGTON DC  MOSUNNY   70  55  59 NE8       30.27R

$$



USA.gov is the U.S. government's official web portal to all federal, state and local government web resources and services.